Home   Weather   Plymouth   Past weeks

Flag for United Kingdom Past Weather in Plymouth, England, United Kingdom — Yesterday and Last 2 Weeks

Now
61 °F

Scattered clouds.


Feels Like: 61 °F
Forecast: 53 / 64 °F
Wind: 14 mph from South

Location: Exeter Airport

Current Time: Sep 26, 2016 at 4:36:54 PM

Latest Report: Sep 26, 2016 at 4:20 PM


Visibility: N/A

Pressure: 30.09 "Hg

Humidity: 77%

Dew Point: 54 °F

Location of PlymouthLocation

Past Weather in Plymouth — Graph

°F

Plymouth Temperature Yesterday

Maximum temperature yesterday: 63 °F (at 12:20 AM)
Minimum temperature yesterday: 52 °F (at 8:50 PM)
Average temperature yesterday: 57 °F

High & Low Weather Summary for the Past Weeks

 TemperatureHumidityPressure
High73 °F (Sep 15, 4:20 PM)100% (Sep 13, 7:50 AM)30.27 "Hg (Sep 13, 7:50 AM)
Low43 °F (Sep 23, 7:20 AM)49% (Sep 23, 2:50 PM)29.71 "Hg (Sep 13, 5:50 PM)
Average60 °F82%30.01 "Hg
* Reported Sep 11 3:20 PM — Sep 26 3:20 PM, Plymouth, Weather by CustomWeather, © 2016

Note: Actual official high and low records may vary slightly from our data, if they occured in-between our weather recording intervals... More about our weather records

Advertising

Plymouth Weather History for the Previous 24 Hours

Scroll right to see more
 ConditionsComfort  
Time TempWeatherWind HumidityBarometerVisibility
3:20 PM
Mon, Sep 26
61 °FScattered clouds.15 mph77%30.09 "HgN/A
2:50 PM61 °FScattered clouds.15 mph77%30.09 "HgN/A
2:20 PM61 °FScattered clouds.16 mph83%30.09 "HgN/A
1:50 PM61 °FPassing clouds.17 mph83%30.09 "HgN/A
1:20 PM61 °FPassing clouds.16 mph83%30.09 "HgN/A
12:50 PM61 °FPassing clouds.14 mph83%30.09 "HgN/A
12:20 PM59 °FLight rain. Scattered clouds.13 mph88%30.12 "HgN/A
11:50 AM57 °FLight rain. Scattered clouds.14 mph88%30.09 "HgN/A
11:20 AM59 °FLight rain. Scattered clouds.17 mph88%30.12 "HgN/A
10:50 AM59 °FLight rain. Scattered clouds.13 mph88%30.12 "HgN/A
10:20 AM57 °FLight rain. Scattered clouds.10 mph94%30.12 "HgN/A
9:50 AM57 °FRain. Scattered clouds.8 mph94%30.12 "HgN/A
9:20 AM57 °FLight rain. Scattered clouds.6 mph94%30.12 "HgN/A
8:50 AM55 °FPassing clouds.5 mph94%30.12 "HgN/A
8:20 AM55 °FRain. Passing clouds.6 mph88%30.12 "HgN/A
7:50 AM54 °FLight rain. Passing clouds.5 mph94%30.09 "HgN/A
7:20 AM55 °FLight rain. Passing clouds.5 mph88%30.09 "HgN/A
6:50 AM55 °FLight rain. Passing clouds.6 mph88%30.09 "HgN/A
6:20 AM54 °FLight rain. Passing clouds.2 mph94%30.09 "HgN/A
5:20 AM54 °FLight rain. Passing clouds.5 mph94%30.12 "HgN/A
4:20 AM55 °FSprinkles. Passing clouds.8 mph88%30.12 "HgN/A
3:50 AM54 °FPassing clouds.7 mph94%30.12 "HgN/A
3:20 AM54 °FPassing clouds.5 mph94%30.12 "HgN/A
2:50 AM54 °FPassing clouds.3 mph88%30.12 "HgN/A
2:20 AM54 °FClear.3 mph88%30.15 "Hg10 mi
1:20 AM54 °FPassing clouds.5 mph88%30.12 "HgN/A
12:50 AM55 °FClear.8 mph82%30.12 "Hg10 mi
12:20 AM55 °FClear.8 mph82%30.15 "Hg10 mi
11:50 PM
Sun, Sep 25
54 °FClear.9 mph88%30.15 "Hg10 mi
11:20 PM54 °FClear.6 mph82%30.15 "Hg10 mi
10:50 PM54 °FClear.7 mph82%30.15 "Hg10 mi
10:20 PM52 °FPassing clouds.7 mph88%30.12 "HgN/A
9:50 PM52 °FPassing clouds.5 mph88%30.12 "HgN/A
9:20 PM54 °FPassing clouds.6 mph82%30.12 "HgN/A
8:50 PM52 °FPassing clouds.6 mph82%30.12 "HgN/A
8:20 PM54 °FPassing clouds.5 mph77%30.12 "HgN/A
7:50 PM55 °FPassing clouds.5 mph72%30.12 "HgN/A
7:20 PM57 °FPassing clouds.6 mph67%30.09 "HgN/A
6:50 PM59 °FPassing clouds.9 mph63%30.09 "HgN/A
6:20 PM61 °FPassing clouds.10 mph59%30.09 "HgN/A
5:50 PM63 °FPassing clouds.13 mph56%30.07 "HgN/A
5:20 PM63 °FPassing clouds.8 mph59%30.07 "HgN/A
4:50 PM61 °FPassing clouds.12 mph59%30.07 "HgN/A
4:20 PM63 °FPassing clouds.13 mph52%30.07 "HgN/A
Weather by CustomWeather, © 2016

See weather overviewHow to use our weather pages